Weather History for 94578 - April, 2013

Change the Weather History Date:

Wednesday, April 3, 2013

  Actual Average Record
Temperature  
Mean Temperature 72 °F -  
Max Temperature 78 °F 78 °F - ()
Min Temperature 65 °F 62 °F - ()
Cooling Degree Days 6    
Growing Degree Days 22 (Base 50)    
Moisture  
Dew Point 64 °F    
Average Humidity 74    
Maximum Humidity 94    
Minimum Humidity 46    
Precipitation  
Precipitation 0.00 in 0.14 in - ()
Sea Level Pressure  
Sea Level Pressure 30.02 in    
Wind  
Wind Speed 6 mph ()    
Max Wind Speed 12 mph    
Max Gust Speed -    
Visibility 7.5 miles    
Events Rain , Thunderstorm    
T = Trace of Precipitation, MM = Missing Value Source: Averaged Metar Reports

Daily Weather History Graph

Daily Weather History Graph

Search for Another Location

Airport or City:

Trip Planner

Search our weather history database for the weather conditions in past years. The results will help you decide how hot, cold, wet, or windy it might be!

Date:

Astronomy

Apr. 03, 2013 Rise Set
Actual Time 5:57 AM AEST 5:43 PM AEST
Civil Twilight 5:34 AM AEST 6:06 PM AEST
Nautical Twilight 5:07 AM AEST 6:33 PM AEST
Astronomical Twilight 4:40 AM AEST 7:00 PM AEST
Moon 11:41 PM AEST (4/3) 12:32 PM AEST (4/3)
Length of Visible Light 12h 31m
Length of Day
11h 45m
Waning Gibbous, 51% of the Moon is Illuminated
Apr 3
Waning Gibbous
Apr 3
Last Quarter
Apr 10
New
Apr 18
First Quarter
Apr 26
Full

Hourly Weather History & Observations

Time (AEST) Temp. Dew Point Humidity Pressure Visibility Wind Dir Wind Speed Gust Speed Precip Events Conditions
12:00 AM 68.0 °F 64.4 °F 88% 29.98 in 6.2 mi SSW 3.5 mph - N/A   Partly Cloudy
12:30 AM 68.0 °F 64.4 °F 88% 29.98 in 6.2 mi SSW 3.5 mph - N/A   Scattered Clouds
1:00 AM 68 °F 65 °F 86% 29.99 in - SSW 3.5 mph - -  
1:00 AM 68.0 °F 64.4 °F 88% 29.98 in 6.2 mi SSW 3.5 mph - N/A   Mostly Cloudy
1:30 AM 68.0 °F 64.4 °F 88% 29.98 in 6.2 mi SSW 5.8 mph - N/A   Mostly Cloudy
2:00 AM 68.0 °F 64.4 °F 88% 29.98 in 6.2 mi SSW 4.6 mph - N/A   Mostly Cloudy
2:30 AM 66.2 °F 64.4 °F 94% 29.98 in 6.2 mi SSW 5.8 mph - N/A   Scattered Clouds
3:00 AM 66 °F 64 °F 92% 29.98 in 19 mi SSW 5.8 mph - -   Partly Cloudy
3:00 AM 66.2 °F 64.4 °F 94% 29.98 in 6.2 mi SSW 5.8 mph - N/A   Mostly Cloudy
3:30 AM 66.2 °F 64.4 °F 94% 29.98 in 6.2 mi SSW 5.8 mph - N/A   Mostly Cloudy
4:00 AM 66 °F 65 °F 94% 29.98 in - SSW 5.8 mph - -  
4:00 AM 66.2 °F 64.4 °F 94% 29.98 in 6.2 mi SSW 5.8 mph - N/A   Mostly Cloudy
4:30 AM 66.2 °F 64.4 °F 94% 29.98 in 6.2 mi SSW 6.9 mph - N/A   Scattered Clouds
5:00 AM 66.2 °F 64.4 °F 94% 29.98 in 6.2 mi SSW 6.9 mph - N/A   Mostly Cloudy
5:30 AM 66.2 °F 64.4 °F 94% 29.98 in 6.2 mi South 8.1 mph - N/A   Mostly Cloudy
6:00 AM 66 °F 65 °F 94% 30.01 in 19 mi South 6.9 mph - -   Partly Cloudy
6:00 AM 66.2 °F 64.4 °F 94% 30.01 in 6.2 mi South 6.9 mph - N/A   Mostly Cloudy
6:30 AM 68.0 °F 64.4 °F 88% 30.01 in 6.2 mi SSW 9.2 mph - N/A   Mostly Cloudy
7:00 AM 68 °F 65 °F 88% 30.03 in - SSW 8.1 mph - -  
7:00 AM 68.0 °F 66.2 °F 94% 30.01 in 6.2 mi SSW 8.1 mph - N/A   Scattered Clouds
7:30 AM 68.0 °F 66.2 °F 94% 30.04 in 6.2 mi SSW 8.1 mph - N/A   Scattered Clouds
8:00 AM 69.8 °F 64.4 °F 83% 30.04 in 6.2 mi SSW 8.1 mph - N/A   Scattered Clouds
8:30 AM 71.6 °F 66.2 °F 83% 30.04 in 6.2 mi SSW 8.1 mph - N/A   Partly Cloudy
9:00 AM 74 °F 64 °F 62% 30.05 in 19 mi SSW 6.9 mph - -   Partly Cloudy
9:00 AM 75.2 °F 64.4 °F 69% 30.04 in 6.2 mi SSW 6.9 mph - N/A   Partly Cloudy
9:30 AM 77.0 °F 62.6 °F 61% 30.04 in 6.2 mi East 5.8 mph - N/A   Partly Cloudy
10:00 AM 78 °F 61 °F 46% 30.06 in - East 6.9 mph - -  
10:00 AM 78.8 °F 60.8 °F 54% 30.04 in 6.2 mi East 6.9 mph - N/A   Scattered Clouds
10:30 AM 77.0 °F 60.8 °F 57% 30.04 in 6.2 mi East 8.1 mph - N/A   Scattered Clouds
11:00 AM 77.0 °F 60.8 °F 57% 30.04 in 6.2 mi East 5.8 mph - N/A Rain Light Rain Showers
11:30 AM 78.8 °F 57.2 °F 47% 30.04 in 6.2 mi ENE 11.5 mph - N/A   Partly Cloudy
12:00 PM 78 °F 62 °F 48% 30.03 in 19 mi ENE 11.5 mph - -   Scattered Clouds
12:00 PM 78.8 °F 62.6 °F 57% 30.01 in 6.2 mi ENE 11.5 mph - N/A   Partly Cloudy
12:30 PM 77.0 °F 64.4 °F 65% 30.01 in 5.0 mi East 9.2 mph - N/A   Scattered Clouds
1:00 PM 75 °F 64 °F 61% 30.01 in - Calm Calm - -  
1:00 PM 75.2 °F 64.4 °F 69% 30.01 in 6.2 mi ENE 9.2 mph - N/A Rain Light Rain Showers
1:30 PM 75.2 °F 64.4 °F 69% 29.98 in 6.2 mi NE 8.1 mph - N/A   Mostly Cloudy
2:00 PM 77.0 °F 59.0 °F 54% 29.98 in 6.2 mi NE 9.2 mph - N/A   Scattered Clouds
2:30 PM 78.8 °F 62.6 °F 57% 29.98 in 6.2 mi ENE 9.2 mph - N/A   Partly Cloudy
3:00 PM 78 °F 62 °F 47% 30.00 in 22 mi NE 11.5 mph - -   Scattered Clouds
3:00 PM 77.0 °F 60.8 °F 57% 29.98 in 6.2 mi NE 11.5 mph - N/A   Partly Cloudy
3:30 PM 77.0 °F 62.6 °F 61% 29.98 in 6.2 mi ENE 10.4 mph - N/A   Partly Cloudy
4:00 PM 78 °F 62 °F 49% 30.01 in - ENE 9.2 mph - -  
4:00 PM 78.8 °F 62.6 °F 57% 30.01 in 6.2 mi ENE 9.2 mph - N/A   Scattered Clouds
4:30 PM 75.2 °F 64.4 °F 69% 30.01 in 6.2 mi ENE 9.2 mph - N/A Thunderstorm Partly Cloudy
5:00 PM 75.2 °F 64.4 °F 69% 30.01 in 6.2 mi East 8.1 mph - N/A   Partly Cloudy
5:30 PM 75.2 °F 60.8 °F 61% 30.01 in 6.2 mi East 6.9 mph - N/A   Scattered Clouds
6:00 PM 74 °F 64 °F 62% 30.04 in 19 mi East 6.9 mph - -   Scattered Clouds
6:00 PM 75.2 °F 64.4 °F 69% 30.04 in 6.2 mi East 6.9 mph - N/A   Partly Cloudy
6:30 PM 75.2 °F 62.6 °F 65% 30.04 in 6.2 mi ESE 8.1 mph - N/A   Scattered Clouds
7:00 PM 74 °F 63 °F 61% 30.06 in - ESE 6.9 mph - -  
7:00 PM 75.2 °F 62.6 °F 65% 30.06 in 6.2 mi ESE 6.9 mph - N/A   Scattered Clouds
7:30 PM 75.2 °F 62.6 °F 65% 30.06 in 6.2 mi ESE 5.8 mph - N/A   Mostly Cloudy
8:00 PM 71.6 °F 64.4 °F 78% 30.06 in 6.2 mi SSE 6.9 mph - N/A   Scattered Clouds
8:30 PM 71.6 °F 64.4 °F 78% 30.09 in 6.2 mi South 5.8 mph - N/A   Scattered Clouds
9:00 PM 71 °F 64 °F 71% 30.11 in 16 mi SSE 6.9 mph - -   Mostly Cloudy
9:00 PM 71.6 °F 64.4 °F 78% 30.09 in 6.2 mi SSE 6.9 mph - N/A   Mostly Cloudy
9:30 PM 71.6 °F 60.8 °F 69% 30.09 in 6.2 mi SE 8.1 mph - N/A   Mostly Cloudy
10:00 PM 71 °F 65 °F 74% 30.12 in - ESE 5.8 mph - -  
10:00 PM 71.6 °F 64.4 °F 78% 30.09 in 6.2 mi ESE 5.8 mph - N/A   Partly Cloudy
10:30 PM 69.8 °F 64.4 °F 83% 30.09 in 6.2 mi SE 4.6 mph - N/A   Mostly Cloudy
11:00 PM 69.8 °F 64.4 °F 83% 30.09 in 6.2 mi South 4.6 mph - N/A   Scattered Clouds
11:30 PM 68.0 °F 64.4 °F 88% 30.09 in 6.2 mi South 4.6 mph - N/A   Mostly Cloudy